Weather in Yurkino

Russia / Vologda Oblast     59°29′22″N   43°34′56″E
temp.,
°C
wind,
m/s
gust,
m/s
humid.,
%
clouds,
%
prec.,
mm/h
press.,
hPa
HPBL,
m
22 january, sat
sat2200:00−10se41193100 0.1 1010481
03:00−11se41094100 0.1 1011446
06:00−11se41193100 0.1 1012406
09:00−12se399599 0.1 1015298
12:00−11ese3794100 0.0 1017337
15:00−11ese3795100 0.1 1018295
18:00−14e279993 0.0 1020131
21:00−17e1210087 0.1 102223
23 january, sun
sun2300:00−16e23100100 0.0 102352
03:00−17ene1110091 0.0 102418
06:00−15n119996 0.1 102510
09:00−14nnw119798 0.1 102740
12:00−10wsw129262 0.0 1028141
15:00−11w119753 0.0 103010
18:00−17wsw119966 0.0 10339
21:00−19sw2210063 0.0 103517
24 january, mon
mon2400:00−18sw2210070 0.0 103639
03:00−17wsw269965 0.0 103780
06:00−18sw259968 0.0 103776
09:00−17sw289862 0.0 1038127
12:00−10sw3109253 0.0 1036252
15:00−10ssw3109327 0.0 1036295
18:00−13sw3109630 0.0 1035199
21:00−14ssw3109576 0.0 1034199
25 january, tue
tue2500:00−14ssw3129517 0.0 1033221
03:00−14ssw4139543 0.0 1031237
06:00−14ssw4139636 0.0 1029235
09:00−15ssw3129897 0.0 1028233
12:00−10s41395100 0.1 1025338
15:00−9s4119118 0.1 1023403
18:00−11s3119463 0.0 1022300
21:00−13s4119672 0.0 1022257
26 january, wed
wed2600:00−15s3998100 0.0 1021186
03:00−17s289989 0.0 1021139
06:00−15s2798100 0.0 1021161
09:00−14sse279699 0.2 1021187
12:00−10s3593100 0.1 1021268
15:00−9sse2595100 0.3 1021324
18:00−10sse2796100 0.1 1020252
21:00−9sse2796100 0.5 1020294